Location: Kouchibouguac National Park
(46.8081°N, 64.9088°W)
Time: 06:58:32
(UTC-04:00)

Daily predictions for brighter satellites

Satellite Brightness Start Highest point End
(mag) Time Altitude Azimuth Time Altitude Azimuth Time Altitude Azimuth
FALCON 9 R/B 4.4 18:13:33 10° SW 18:19:15 40° SSE 18:37:24 10° ESE
Cosmos 2056 Rocket 4.3 18:17:51 10° NNW 18:23:12 61° WSW 18:28:32 10° S
ATLAS 3B R/B 3.3 18:19:42 10° SW 18:26:50 63° NW 18:33:42 10° NE
Iridium 4 Rocket 4.1 18:23:24 10° NNE 18:27:40 28° ENE 18:31:36 10° SE
Cosmos 1452 Rocket 3.5 18:24:05 10° NNW 18:29:21 66° ENE 18:34:35 10° SSE
ERS-2 3.0 18:26:53 10° SE 18:30:05 29° ENE 18:33:19 10° N
Okean 1 4.4 18:27:47 10° NNE 18:31:06 24° ENE 18:34:23 10° SE
Cosmos 158 Rocket 4.5 18:27:04 10° SSE 18:31:27 34° ESE 18:35:51 10° NE
NOSS 3-2 (A) 3.6 18:25:45 10° SW 18:31:46 83° NW 18:38:30 10° NE
CZ-4 R/B 3.2 18:32:54 10° SSW 18:36:40 37° W 18:40:22 10° NNW
Cosmos 1812 2.7 18:33:16 10° N 18:37:09 65° E 18:41:00 10° SSE
SPOT 3 Rocket 3.5 18:34:31 10° SSE 18:39:43 75° ENE 18:44:57 10° NNW
Cosmos 2333 Rocket 4.4 18:34:55 10° NW 18:39:48 31° WSW 18:44:39 10° SSW
Cosmos 2285 Rocket 4.3 18:34:02 10° SSW 18:40:22 75° WNW 18:46:49 10° NNE
Aureole 3 4.0 18:34:59 10° S 18:40:33 56° E 18:44:57 10° NNE
CZ-2D R/B 4.5 18:40:07 10° ESE 18:43:12 23° ENE 18:46:17 10° NNE
Cosmos 2082 3.7 18:38:34 10° SSW 18:44:10 79° ESE 18:49:51 10° NNE
Meteor 1-18 Rocket 4.3 18:39:45 10° N 18:45:18 57° ENE 18:50:45 10° SSE
Okean 3 3.4 18:41:09 10° N 18:45:19 67° E 18:49:29 10° SSE
Cosmos 1674 Rocket 3.5 18:41:06 10° N 18:45:29 83° E 18:49:49 10° S
Cosmos 1420 Rocket 4.0 18:43:45 10° NNW 18:49:04 78° ENE 18:54:22 10° SSE
Cosmos 2034 Rocket 4.3 18:44:43 10° N 18:50:54 49° ENE 18:57:02 10° SSE
Cosmos 921 Rocket 3.3 18:48:57 10° N 18:53:20 47° ENE 18:57:40 10° SE
Cosmos 1908 Rocket 3.7 18:52:49 10° S 18:57:09 52° E 19:01:31 10° NNE
Meteor 1-25 Rocket 4.2 18:51:55 10° S 18:57:21 62° E 19:02:52 10° NNE
Cosmos 405 3.3 18:55:10 10° SSW 18:58:39 67° WNW 19:02:10 10° N
Cosmos 1733 Rocket 3.7 18:58:34 10° SSW 19:02:49 59° WNW 19:07:07 10° N
Cosmos 44 Rocket 3.8 19:01:33 10° NW 19:06:33 67° WSW 19:11:38 10° SSE
Tiangong 2 3.9 19:05:04 10° WSW 19:06:34 13° SSW 19:08:05 10° S
EO 1 Del DPAF 3.2 19:02:55 10° NNE 19:06:46 90° NNW 19:10:36 10° SSW
ARGOS Delta rocket 4.5 19:02:36 10° NNE 19:06:57 31° E 19:11:04 10° SSE
FREGAT/IRIS 2.4 19:07:19 10° SSE 19:10:16 85° E 19:13:17 10° N
USA 215 3.9 19:05:38 15° ENE 19:10:30 36° SE 19:16:24 10° SSW
Cosmos 1437 Rocket 3.2 19:07:08 10° SSE 19:10:56 40° E 19:14:48 10° NNE
Gbstr 26 Del rocket 4.4 19:10:17 10° S 19:12:36 16° SE 19:12:36 16° SE
Landsat 4 4.3 19:11:10 10° N 19:14:52 58° WNW 19:18:32 10° SSW
SeaSat 1 2.5 19:10:26 10° SE 19:15:13 56° NE 19:20:03 10° NNW
Resurs 1-3 4.4 19:14:22 22° ESE 19:16:09 30° ENE 19:19:58 10° N
Cosmos 1975 Rocket 3.1 19:16:40 10° N 19:21:04 60° ENE 19:25:28 10° SSE
CZ-4C R/B 3.4 19:14:53 10° NNW 19:21:16 40° NE 19:25:28 23° E
COSMOS 2455 3.9 19:17:50 10° SSE 19:22:19 22° ESE 19:22:19 22° ESE
Cosmos 468 4.5 19:18:15 10° SSW 19:23:31 89° SE 19:28:49 10° NNE
Envisat 3.0 19:18:44 10° SSE 19:23:42 58° ENE 19:28:42 10° N
NOSS 3-2 (C) 4.1 19:19:57 10° WSW 19:25:55 55° NW 19:32:37 10° NE
Thor Agena Rocket 3.6 19:22:37 10° NNE 19:27:36 51° E 19:32:29 10° S
Cosmos 1939 Rocket 3.6 19:28:19 33° E 19:28:47 34° ENE 19:32:31 10° N
Cosmos 1943 3.7 19:23:50 10° NNW 19:29:07 39° NE 19:31:18 28° E
Resurs 01 Rocket 2.0 19:28:29 29° ESE 19:30:04 40° ENE 19:34:13 10° N
SL-8 R/B 3.6 19:25:27 10° WSW 19:30:13 76° SSE 19:32:23 32° E
Cosmos 1184 Rocket 4.4 19:28:15 10° N 19:29:49 22° NNE 19:29:49 22° NNE
Cosmos 1110 Rocket 4.0 19:30:23 10° NNW 19:35:38 61° ENE 19:38:55 23° SE
Cosmos 1269 Rocket 3.9 19:30:38 10° S 19:35:52 69° ESE 19:41:09 10° NNE
USA 32 4.0 19:30:40 10° S 19:35:54 89° W 19:41:10 10° N
HJ-1C 3.8 19:33:21 10° S 19:36:45 63° W 19:40:10 10° NNW
Cosmos 494 Rocket 4.5 19:33:21 10° SSE 19:38:04 36° ESE 19:38:48 34° E
YAOGAN 6 3.6 19:40:14 30° NNE 19:40:14 30° NNE 19:42:35 10° N
Cosmos 2227 Rocket 3.9 19:40:11 10° WSW 19:45:14 32° NW 19:50:18 10° NNE
USA 267 3.5 19:42:43 30° E 19:45:53 55° NNE 19:52:14 10° NW
CENTAUR R/B 2.6 19:41:15 10° SW 19:47:23 81° NW 19:54:31 10° NE
SL-16 R/B 3.8 19:42:43 10° NW 19:47:50 35° WSW 19:52:53 10° S
Tsikada Rocket 4.0 19:43:03 10° S 19:49:27 81° E 19:55:54 10° N
ATLAS CENTAUR R/B 2.1 19:46:12 10° NNW 19:49:50 37° NE 19:49:50 37° NE
Cosmos 1536 Rocket 4.4 19:47:18 10° N 19:50:24 34° NE 19:50:24 34° NE
Cosmos 1782 Rocket 3.9 19:50:36 10° SSW 19:55:00 68° W 19:59:26 10° N
SJ-6B 3.7 19:51:21 10° S 19:55:01 47° W 19:58:47 10° NNW
USA 186 2.4 19:56:26 50° NNW 19:56:26 50° NNW 19:58:59 10° NNW
H-2A R/B 3.9 19:59:59 17° NE 19:59:59 17° NE 20:02:07 10° NNE
Cosmos 2297 Rocket 4.0 19:54:07 10° WSW 19:59:03 30° NW 20:04:02 10° N
Meteor 1-13 Rocket 4.1 19:55:19 10° NNW 20:00:53 87° W 20:06:24 10° S
Cosmos 1603 3.9 20:01:04 10° NNW 20:06:42 71° WSW 20:10:04 25° S
Cosmos 1331 Rocket 4.0 20:02:19 10° NNW 20:07:40 84° WSW 20:09:49 37° SSE
Geosat 4.1 20:14:11 54° SSE 20:14:11 54° SSE 20:18:21 10° SSW
Spot 2 Rocket 3.3 20:12:23 54° SSE 20:13:34 85° ENE 20:18:40 10° NNW
Okean 2 Rocket 3.3 20:10:57 10° SSW 20:15:19 67° W 20:19:45 10° N
BREEZE-M DEB (TANK) 3.7 20:13:07 10° W 20:14:37 26° WSW 20:14:37 26° WSW
Cosmos 2263 Rocket 4.1 20:22:07 10° S 20:23:04 15° S 20:23:04 15° S
Cosmos 2279 Rocket 3.9 20:23:40 10° N 20:29:43 66° ENE 20:29:43 66° ENE
Cosmos 1302 Rocket 4.1 20:32:14 10° NNW 20:37:00 73° NW 20:37:00 73° NW
ARGOS 4.3 20:47:21 33° N 20:47:21 33° N 20:50:25 10° N
Meteor 1-5 Rocket 4.4 20:41:56 10° SSW 20:47:49 76° WNW 20:53:50 10° N
Cosmos 1634 Rocket 4.5 20:42:51 10° NNW 20:48:52 57° W 20:52:05 28° SSW
Meteor 1-11 Rocket 4.4 20:45:07 10° SSW 20:50:34 51° WNW 20:56:09 10° N
SeaSat 1 4.5 20:50:15 15° SSW 20:53:00 24° WSW 20:56:57 10° NW
USA 215 3.2 20:52:59 67° NNE 20:53:54 79° NNW 21:00:26 10° WSW
Resurs 01 Rocket 3.7 21:06:03 22° WSW 21:06:42 23° W 21:10:13 10° NW
COSMOS 2455 3.7 21:01:41 10° SW 21:05:36 42° SW 21:05:36 42° SW
CZ-4C R/B 3.0 21:03:17 10° NW 21:10:22 69° SW 21:10:42 69° SW
Cosmos 1943 4.3 21:07:59 10° NW 21:13:10 38° WSW 21:13:11 38° WSW
USA 267 3.8 21:30:04 53° W 21:30:04 53° W 21:35:21 10° WNW
ATLAS CENTAUR R/B 4.3 21:25:15 10° NW 21:26:07 15° WNW 21:26:07 15° WNW
H-2A R/B 4.2 21:40:36 22° NNW 21:40:36 22° NNW 21:42:32 10° NNW
CENTAUR R/B 4.3 21:33:35 10° W 21:39:13 29° NNW 21:42:04 23° NNE
